FW5778 Weather Reports


time (UTC)temp
C
wind
direction
speed
KPH
gust
KPH
rain 1hr
cm
rain 24hr
cm
rain mn
cm
humidity
%
barometer
mb
20260904081558 21 173 8.0 24.1 0.00 0.00 0.00 20 1008.4
20260904081051 21 184 8.0 24.1 0.00 0.00 0.00 20 1008.4
20260904080552 21 160 11.3 24.1 0.00 0.00 0.00 20 1008.2
20260904080049 22 156 11.3 24.1 0.00 0.00 0.00 19 1008.4
20260904075548 22 162 8.0 32.2 0.00 0.00 0.00 18 1008.5
20260904075047 22 150 8.0 27.4 0.00 0.00 0.00 19 1008.5
20260904074547 22 244 8.0 25.7 0.00 0.00 0.00 18 1008.6
20260904074045 22 150 11.3 25.7 0.00 0.00 0.00 17 1008.5
20260904073548 22 153 8.0 22.5 0.00 0.00 0.00 17 1008.5
20260904073043 22 157 9.7 20.9 0.00 0.00 0.00 17 1008.4
20260904072543 22 146 8.0 20.9 0.00 0.00 0.00 16 1008.5
20260904072043 22 173 6.4 27.4 0.00 0.00 0.00 16 1008.4
20260904071542 22 149 6.4 27.4 0.00 0.00 0.00 16 1008.4
20260904071041 22 163 11.3 22.5 0.00 0.00 0.00 16 1008.4
20260904070541 22 158 9.7 29.0 0.00 0.00 0.00 16 1008.4
20260904070040 23 136 17.7 29.0 0.00 0.00 0.00 15 1008.3
20260904065539 23 146 9.7 25.7 0.00 0.00 0.00 15 1008.4
20260904065038 23 162 12.9 24.1 0.00 0.00 0.00 16 1008.4
20260904064537 22 143 9.7 29.0 0.00 0.00 0.00 16 1008.4
20260904064036 22 156 16.1 29.0 0.00 0.00 0.00 16 1008.3
20260904063535 22 127 6.4 17.7 0.00 0.00 0.00 20 1008.3
20260904063038 22 165 8.0 24.1 0.00 0.00 0.00 19 1008.2
20260904062532 23 145 6.4 24.1 0.00 0.00 0.00 17 1008.2
20260904062032 22 160 9.7 22.5 0.00 0.00 0.00 18 1008.1
20260904061540 23 109 6.4 22.5 0.00 0.00 0.00 18 1008.1
20260904061029 23 179 12.9 29.0 0.00 0.00 0.00 18 1008.0
20260904060528 23 129 8.0 35.4 0.00 0.00 0.00 16 1008.0
20260904060026 23 109 14.5 33.8 0.00 0.00 0.00 15 1007.9
20260904055525 23 143 12.9 33.8 0.00 0.00 0.00 16 1007.9
20260904055025 23 158 11.3 27.4 0.00 0.00 0.00 16 1007.9
20260904054527 23 165 8.0 27.4 0.00 0.00 0.00 16 1007.8
20260904054027 23 127 8.0 25.7 0.00 0.00 0.00 16 1007.8
20260904053528 23 158 14.5 25.7 0.00 0.00 0.00 16 1007.8
20260904053025 23 140 9.7 24.1 0.00 0.00 0.00 16 1007.8
20260904052525 23 173 11.3 20.9 0.00 0.00 0.00 16 1007.8
20260904052025 23 186 9.7 20.9 0.00 0.00 0.00 17 1007.7
20260904051524 23 158 6.4 20.9 0.00 0.00 0.00 16 1007.7
20260904051026 24 141 8.0 20.9 0.00 0.00 0.00 16 1007.8
20260904050524 24 147 9.7 22.5 0.00 0.00 0.00 16 1007.8
20260904050024 24 144 8.0 22.5 0.00 0.00 0.00 16 1007.8
20260904045524 24 166 8.0 22.5 0.00 0.00 0.00 16 1007.8
20260904045024 24 122 12.9 33.8 0.00 0.00 0.00 15 1007.9
20260904044536 25 151 12.9 33.8 0.00 0.00 0.00 15 1007.9
20260904044023 25 167 8.0 25.7 0.00 0.00 0.00 15 1007.9
20260904043523 25 166 9.7 29.0 0.00 0.00 0.00 15 1007.8
20260904043032 25 142 11.3 29.0 0.00 0.00 0.00 15 1007.9
20260904042523 25 144 12.9 30.6 0.00 0.00 0.00 15 1007.8
20260904042024 25 129 12.9 27.4 0.00 0.00 0.00 15 1007.8
20260904041523 24 227 9.7 25.7 0.00 0.00 0.00 16 1007.8
20260904041022 24 180 9.7 25.7 0.00 0.00 0.00 16 1007.7
20260904040522 24 131 9.7 22.5 0.00 0.00 0.00 16 1007.8
20260904040022 24 161 9.7 22.5 0.00 0.00 0.00 16 1007.8
20260904035522 24 150 8.0 22.5 0.00 0.00 0.00 16 1007.7
20260904035024 24 150 9.7 22.5 0.00 0.00 0.00 16 1007.6
20260904034521 24 181 8.0 17.7 0.00 0.00 0.00 16 1007.6
20260904034021 24 156 4.8 16.1 0.00 0.00 0.00 16 1007.5
20260904033522 24 167 6.4 17.7 0.00 0.00 0.00 16 1007.6
20260904033020 24 151 6.4 17.7 0.00 0.00 0.00 16 1007.6
20260904032520 24 194 4.8 16.1 0.00 0.00 0.00 16 1007.6
20260904032021 24 199 4.8 12.9 0.00 0.00 0.00 16 1007.6
20260904031520 25 158 4.8 16.1 0.00 0.00 0.00 16 1007.6
20260904031019 25 139 4.8 17.7 0.00 0.00 0.00 15 1007.6
20260904030520 25 201 4.8 17.7 0.00 0.00 0.00 16 1007.5
20260904030022 25 255 6.4 20.9 0.00 0.00 0.00 15 1007.5
20260904025519 25 150 6.4 20.9 0.00 0.00 0.00 15 1007.5
20260904025020 25 221 4.8 14.5 0.00 0.00 0.00 15 1007.5
20260904024519 25 198 3.2 11.3 0.00 0.00 0.00 15 1007.5
20260904024018 25 146 3.2 11.3 0.00 0.00 0.00 15 1007.5
20260904023519 25 138 4.8 16.1 0.00 0.00 0.00 15 1007.5
20260904023018 25 226 4.8 16.1 0.00 0.00 0.00 15 1007.5
20260904022518 25 167 4.8 19.3 0.00 0.00 0.00 15 1007.4
20260904022018 25 201 8.0 19.3 0.00 0.00 0.00 15 1007.3
20260904021523 25 198 4.8 14.5 0.00 0.00 0.00 15 1007.3
20260904021021 25 197 3.2 11.3 0.00 0.00 0.00 15 1007.3
20260904020517 26 198 3.2 17.7 0.00 0.00 0.00 15 1007.3
20260904020017 26 154 8.0 20.9 0.00 0.00 0.00 15 1007.2
20260904015518 26 184 6.4 20.9 0.00 0.00 0.00 15 1007.2
20260904015016 26 155 3.2 19.3 0.00 0.00 0.00 15 1007.3
20260904014516 26 139 4.8 25.7 0.00 0.00 0.00 14 1007.5
20260904014015 27 152 11.3 25.7 0.00 0.00 0.00 14 1007.5
20260904013514 27 155 9.7 22.5 0.00 0.00 0.00 14 1007.4
20260904013016 27 180 6.4 20.9 0.00 0.00 0.00 14 1007.5
20260904012516 27 157 9.7 24.1 0.00 0.00 0.00 14 1007.5
20260904012014 27 244 6.4 32.2 0.00 0.00 0.00 14 1007.5
20260904011514 27 148 12.9 32.2 0.00 0.00 0.00 13 1007.6
20260904011013 27 226 17.7 33.8 0.00 0.00 0.00 13 1007.6
20260904010513 27 219 12.9 33.8 0.00 0.00 0.00 13 1007.6
20260904010013 27 209 14.5 32.2 0.00 0.00 0.00 13 1007.6
20260904005512 27 131 12.9 30.6 0.00 0.00 0.00 13 1007.6
20260904005012 27 207 14.5 27.4 0.00 0.00 0.00 13 1007.6
20260904004512 27 272 11.3 35.4 0.00 0.00 0.00 14 1007.6
20260904004012 27 212 20.9 35.4 0.00 0.00 0.00 13 1007.7
20260904003513 27 201 11.3 24.1 0.00 0.00 0.00 14 1007.7
20260904003010 27 243 8.0 25.7 0.00 0.00 0.00 14 1007.7
20260904002513 27 203 11.3 24.1 0.00 0.00 0.00 15 1007.7
20260904002011 27 189 6.4 22.5 0.00 0.00 0.00 15 1007.7
20260904001509 27 181 9.7 29.0 0.00 0.00 0.00 15 1007.8
20260904001010 27 193 12.9 29.0 0.00 0.00 0.00 14 1007.8
20260904000510 27 162 8.0 25.7 0.00 0.00 0.00 15 1007.7
20260904000009 27 134 6.4 29.0 0.00 0.00 0.00 15 1007.7
20260903235509 27 224 11.3 29.0 0.00 0.00 0.00 14 1007.8
20260903235008 27 158 11.3 29.0 0.00 0.00 0.00 14 1008.0
20260903234520 27 165 8.0 29.0 0.00 0.00 0.00 15 1008.0
20260903234008 27 143 9.7 37.0 0.00 0.00 0.00 14 1007.9
20260903233507 27 154 9.7 37.0 0.00 0.00 0.00 14 1008.0
20260903233006 27 162 8.0 29.0 0.00 0.00 0.00 14 1008.0
20260903232506 27 155 9.7 20.9 0.00 0.00 0.00 14 1008.2
20260903232005 27 162 8.0 29.0 0.00 0.00 0.00 14 1008.2
20260903231504 27 176 11.3 29.0 0.00 0.00 0.00 13 1008.4
20260903231003 28 162 14.5 29.0 0.00 0.00 0.00 13 1008.4
20260903230502 28 148 12.9 29.0 0.00 0.00 0.00 13 1008.3
20260903230005 28 214 11.3 30.6 0.00 0.00 0.00 13 1008.4
20260903225502 28 222 14.5 38.6 0.00 0.00 0.00 12 1008.6
20260903225100 28 167 14.5 38.6 0.00 0.00 0.00 12 1008.7
20260903224600 28 217 9.7 37.0 0.00 0.00 0.00 13 1008.7
20260903224059 28 212 16.1 37.0 0.00 0.00 0.00 12 1008.7
20260903223558 28 212 12.9 35.4 0.00 0.00 0.00 12 1008.8
20260903223058 28 158 9.7 32.2 0.00 0.00 0.00 13 1008.8
20260903222602 28 153 14.5 37.0 0.00 0.00 0.00 11 1008.8
20260903222057 28 155 17.7 35.4 0.00 0.00 0.00 11 1008.9
20260903221558 28 231 6.4 40.2 0.00 0.00 0.00 13 1009.0
20260903221054 28 155 16.1 40.2 0.00 0.00 0.00 13 1009.1
20260903220554 28 118 14.5 30.6 0.00 0.00 0.00 13 1009.1
20260903220117 28 146 11.3 37.0 0.00 0.00 0.00 13 1009.1
20260903215554 27 148 17.7 37.0 0.00 0.00 0.00 14 1009.1
20260903215053 28 195 14.5 35.4 0.00 0.00 0.00 13 1009.3
20260903214552 27 130 12.9 30.6 0.00 0.00 0.00 12 1009.3
20260903214052 28 160 17.7 30.6 0.00 0.00 0.00 12 1009.5
20260903213554 28 129 9.7 29.0 0.00 0.00 0.00 13 1009.6
20260903213051 28 169 9.7 29.0 0.00 0.00 0.00 13 1009.5
20260903212550 28 147 11.3 32.2 0.00 0.00 0.00 14 1009.6
20260903212050 28 124 9.7 27.4 0.00 0.00 0.00 13 1009.5
20260903211551 28 141 14.5 22.5 0.00 0.00 0.00 12 1009.7
20260903211049 27 196 9.7 24.1 0.00 0.00 0.00 13 1009.8
20260903210547 27 222 12.9 32.2 0.00 0.00 0.00 12 1009.9
20260903210047 28 200 14.5 32.2 0.00 0.00 0.00 12 1010.1
20260903205545 27 158 11.3 24.1 0.00 0.00 0.00 13 1010.1
20260903205048 27 193 12.9 38.6 0.00 0.00 0.00 12 1010.0
20260903204545 27 122 16.1 38.6 0.00 0.00 0.00 13 1010.2
20260903204045 27 108 20.9 37.0 0.00 0.00 0.00 12 1010.3
20260903203545 27 229 11.3 29.0 0.00 0.00 0.00 13 1010.2
20260903203044 27 143 16.1 35.4 0.00 0.00 0.00 12 1010.3
20260903202546 27 180 17.7 35.4 0.00 0.00 0.00 13 1010.4
20260903202045 27 217 11.3 32.2 0.00 0.00 0.00 13 1010.5
20260903201543 27 164 14.5 32.2 0.00 0.00 0.00 13 1010.5
20260903201042 27 147 4.8 25.7 0.00 0.00 0.00 15 1010.6
20260903200540 27 181 11.3 33.8 0.00 0.00 0.00 14 1010.8
20260903200040 27 148 12.9 35.4 0.00 0.00 0.00 13 1010.8
20260903195542 26 141 16.1 40.2 0.00 0.00 0.00 14 1010.8
20260903195039 26 115 20.9 40.2 0.00 0.00 0.00 14 1010.8
20260903194538 26 134 11.3 27.4 0.00 0.00 0.00 15 1011.0
20260903194041 26 134 12.9 33.8 0.00 0.00 0.00 14 1011.0
20260903193537 26 139 16.1 33.8 0.00 0.00 0.00 14 1011.2
20260903193037 26 183 11.3 29.0 0.00 0.00 0.00 15 1011.2
20260903192536 26 123 16.1 35.4 0.00 0.00 0.00 15 1011.3
20260903192039 26 175 19.3 35.4 0.00 0.00 0.00 14 1011.4
20260903191549 26 148 14.5 30.6 0.00 0.00 0.00 15 1011.4
20260903191035 26 133 9.7 30.6 0.00 0.00 0.00 15 1011.5
20260903190534 26 117 9.7 25.7 0.00 0.00 0.00 15 1011.5
20260903190034 26 137 12.9 29.0 0.00 0.00 0.00 15 1011.6
20260903185533 26 134 14.5 32.2 0.00 0.00 0.00 15 1011.7
20260903185033 26 115 9.7 32.2 0.00 0.00 0.00 16 1011.8
20260903184542 26 117 16.1 27.4 0.00 0.00 0.00 15 1011.8
20260903184033 26 153 16.1 24.1 0.00 0.00 0.00 16 1011.9
20260903183532 26 148 16.1 38.6 0.00 0.00 0.00 15 1012.0
20260903183035 26 245 12.9 38.6 0.00 0.00 0.00 15 1012.1
20260903182533 25 125 11.3 27.4 0.00 0.00 0.00 15 1012.2
20260903182035 25 163 14.5 29.0 0.00 0.00 0.00 15 1012.2
20260903181530 25 184 14.5 29.0 0.00 0.00 0.00 14 1012.3
20260903181030 26 115 11.3 22.5 0.00 0.00 0.00 16 1012.3
20260903180529 25 225 11.3 22.5 0.00 0.00 0.00 16 1012.4
20260903180036 25 129 8.0 24.1 0.00 0.00 0.00 17 1012.6
20260903175526 25 129 14.5 24.1 0.00 0.00 0.00 15 1012.6
20260903175026 25 150 6.4 24.1 0.00 0.00 0.00 16 1012.6
20260903174524 25 98 9.7 24.1 0.00 0.00 0.00 17 1012.6
20260903174025 25 138 12.9 27.4 0.00 0.00 0.00 17 1012.7
20260903173523 25 121 9.7 24.1 0.00 0.00 0.00 18 1012.7
20260903173022 24 127 9.7 25.7 0.00 0.00 0.00 18 1012.5
20260903172527 24 172 9.7 25.7 0.00 0.00 0.00 16 1012.7
20260903172023 24 162 9.7 24.1 0.00 0.00 0.00 17 1012.7
20260903171521 24 134 6.4 27.4 0.00 0.00 0.00 18 1012.7
20260903171020 23 132 12.9 27.4 0.00 0.00 0.00 18 1012.6
20260903170519 23 136 12.9 24.1 0.00 0.00 0.00 18 1012.8
20260903170018 23 130 11.3 27.4 0.00 0.00 0.00 18 1012.9
20260903165518 23 120 14.5 29.0 0.00 0.00 0.00 18 1012.9
20260903165016 23 133 12.9 29.0 0.00 0.00 0.00 18 1013.0
20260903164517 23 191 8.0 27.4 0.00 0.00 0.00 19 1013.0
20260903164015 23 113 16.1 30.6 0.00 0.00 0.00 19 1012.8
20260903163514 22 127 17.7 30.6 0.00 0.00 0.00 18 1012.8
20260903163013 22 120 11.3 24.1 0.00 0.00 0.00 19 1012.8
20260903162512 22 134 9.7 30.6 0.00 0.00 0.00 20 1012.9
20260903162012 22 158 11.3 22.5 0.00 0.00 0.00 20 1012.9
20260903161510 22 153 6.4 27.4 0.00 0.00 0.00 21 1013.0
20260903161009 22 123 12.9 29.0 0.00 0.00 0.00 20 1013.0
20260903160509 22 155 12.9 29.0 0.00 0.00 0.00 20 1013.0
20260903160012 22 110 12.9 24.1 0.00 0.00 0.00 20 1013.1
20260903155510 22 167 16.1 24.1 0.00 0.00 0.00 21 1013.0
20260903155007 21 136 11.3 24.1 0.00 0.00 0.00 21 1013.0
20260903154505 21 191 11.3 24.1 0.00 0.00 0.00 21 1013.0
20260903154004 21 118 11.3 24.1 0.00 0.00 0.00 22 1013.0
20260903153504 21 216 14.5 24.1 0.00 0.00 0.00 22 1013.1
20260903153004 21 167 11.3 24.1 0.00 0.00 0.00 22 1013.2
20260903152506 21 151 9.7 20.9 0.00 0.00 0.00 22 1013.2
20260903152003 21 138 11.3 25.7 0.00 0.00 0.00 22 1013.2
20260903151502 21 127 14.5 25.7 0.00 0.00 0.00 20 1013.2
20260903151002 21 156 11.3 27.4 0.00 0.00 0.00 20 1013.2
20260903150501 21 153 8.0 27.4 0.00 0.00 0.00 19 1013.2
20260903150100 21 138 8.0 24.1 0.00 0.00 0.00 19 1013.2
20260903145559 21 155 12.9 24.1 0.00 0.00 0.00 19 1013.2
20260903145058 21 151 12.9 25.7 0.00 0.00 0.00 19 1013.1
20260903144557 20 141 11.3 25.7 0.00 0.00 0.00 19 1013.1
20260903144057 20 158 6.4 17.7 0.00 0.00 0.00 19 1013.0
20260903143555 20 153 8.0 22.5 0.00 0.00 0.00 19 1013.0
20260903143108 20 151 11.3 22.5 0.00 0.00 0.00 19 1013.1
20260903142555 20 136 8.0 33.8 0.00 0.00 0.00 20 1013.0
20260903142057 20 130 12.9 33.8 0.00 0.00 0.00 18 1013.0
20260903141552 20 151 9.7 22.5 0.00 0.00 0.00 19 1013.0
20260903141050 19 143 11.3 22.5 0.00 0.00 0.00 19 1013.0
20260903140550 19 211 6.4 22.5 0.00 0.00 0.00 21 1012.9
20260903140050 18 160 6.4 16.1 0.00 0.00 0.00 20 1013.0
20260903135550 18 172 4.8 19.3 0.00 0.00 0.00 22 1013.0
20260903135050 17 135 6.4 19.3 0.00 0.00 0.00 23 1013.0
20260903134548 15 179 3.2 9.7 0.00 0.00 0.00 27 1012.9
20260903134047 14 245 1.6 3.2 0.00 0.00 0.00 35 1012.9
20260903133546 13 268 1.6 6.4 0.00 0.00 0.00 35 1012.9
20260903133046 13 172 0.0 6.4 0.00 0.00 0.00 36 1012.9
20260903132545 12 252 0.0 1.6 0.00 0.00 0.00 41 1012.8
20260903132045 12 281 0.0 1.6 0.00 0.00 0.00 43 1012.7
20260903131602 12 227 0.0 1.6 0.00 0.00 0.00 42 1012.6
20260903131042 12 207 0.0 1.6 0.00 0.00 0.00 45 1012.5
20260903130545 13 234 0.0 1.6 0.00 0.00 0.00 40 1012.4
20260903130044 13 234 0.0 3.2 0.00 0.00 0.00 43 1012.3
20260903125544 13 221 0.0 3.2 0.00 0.00 0.00 42 1012.4
20260903125042 12 206 0.0 3.2 0.00 0.00 0.00 45 1012.4
20260903124542 12 206 0.0 1.6 0.00 0.00 0.00 44 1012.3
20260903124043 12 245 0.0 0.0 0.00 0.00 0.00 43 1012.3
20260903123541 12 245 0.0 0.0 0.00 0.00 0.00 45 1012.3
20260903123044 12 245 0.0 0.0 0.00 0.00 0.00 44 1012.3
20260903122540 12 245 0.0 1.6 0.00 0.00 0.00 45 1012.2
20260903122039 12 245 0.0 1.6 0.00 0.00 0.00 42 1012.1
20260903121537 12 245 0.0 1.6 0.00 0.00 0.00 44 1012.0
20260903121037 12 245 0.0 1.6 0.00 0.00 0.00 43 1012.0
20260903120538 12 317 0.0 0.0 0.00 0.00 0.00 43 1012.0
20260903120038 12 332 0.0 0.0 0.00 0.00 0.00 42 1012.0
20260903115534 12 13 0.0 3.2 0.00 0.00 0.00 41 1012.0
20260903115032 13 13 0.0 3.2 0.00 0.00 0.00 40 1011.9
20260903114531 13 191 0.0 1.6 0.00 0.00 0.00 39 1011.9
20260903114030 13 207 0.0 1.6 0.00 0.00 0.00 36 1011.8
20260903113532 14 207 0.0 0.0 0.00 0.00 0.00 32 1011.8
20260903113039 13 205 0.0 1.6 0.00 0.00 0.00 33 1011.7
20260903112531 14 205 0.0 1.6 0.00 0.00 0.00 33 1011.8
20260903112029 14 215 0.0 3.2 0.00 0.00 0.00 30 1011.7
20260903111529 14 236 0.0 3.2 0.00 0.00 0.00 34 1011.8
20260903111032 14 174 0.0 4.8 0.00 0.00 0.00 34 1011.8
20260903110528 14 225 0.0 4.8 0.00 0.00 0.00 33 1011.7
20260903110031 14 264 0.0 3.2 0.00 0.00 0.00 34 1011.7
20260903105527 14 220 0.0 3.2 0.00 0.00 0.00 34 1011.7
20260903105026 14 240 0.0 3.2 0.00 0.00 0.00 32 1011.7
20260903104526 14 195 0.0 3.2 0.00 0.00 0.00 33 1011.6
20260903104025 13 227 0.0 3.2 0.00 0.00 0.00 39 1011.6
20260903103525 13 216 0.0 1.6 0.00 0.00 0.00 36 1011.6
20260903103025 13 237 0.0 1.6 0.00 0.00 0.00 40 1011.6
20260903102524 14 240 0.0 3.2 0.00 0.00 0.00 37 1011.5
20260903102025 14 240 0.0 3.2 0.00 0.00 0.00 38 1011.4
20260903101524 14 237 0.0 4.8 0.00 0.00 0.00 39 1011.4
20260903101021 15 219 1.6 4.8 0.00 0.00 0.00 38 1011.4
20260903100520 15 270 0.0 4.8 0.00 0.00 0.00 40 1011.3
20260903100022 14 210 0.0 3.2 0.00 0.00 0.00 40 1011.3
20260903095518 14 249 1.6 3.2 0.00 0.00 0.00 39 1011.3
20260903095021 15 212 0.0 3.2 0.00 0.00 0.00 39 1011.1
20260903094517 15 236 0.0 4.8 0.00 0.00 0.00 39 1011.1
20260903094018 15 254 1.6 4.8 0.00 0.00 0.00 39 1011.1
20260903093516 15 234 1.6 4.8 0.00 0.00 0.00 38 1011.1
20260903093014 15 245 1.6 6.4 0.00 0.00 0.00 38 1011.1
20260903092516 15 218 1.6 6.4 0.00 0.00 0.00 38 1011.1
20260903092012 15 210 1.6 4.8 0.00 0.00 0.00 38 1011.0
20260903091517 15 232 1.6 4.8 0.00 0.00 0.00 37 1011.0
20260903091011 16 224 1.6 3.2 0.00 0.00 0.00 35 1011.0
20260903090511 16 152 0.0 3.2 0.00 0.00 0.00 34 1011.0
20260903090011 16 305 0.0 4.8 0.00 0.00 0.00 34 1010.9
20260903085511 15 274 0.0 6.4 0.00 0.00 0.00 33 1011.0
20260903085010 15 279 3.2 6.4 0.00 0.00 0.00 36 1011.0
20260903084519 15 213 0.0 4.8 0.00 0.00 0.00 38 1011.1
20260903084010 15 259 0.0 3.2 0.00 0.00 0.00 38 1011.0
20260903083509 16 280 0.0 3.2 0.00 0.00 0.00 38 1011.1
20260903083012 16 240 0.0 1.6 0.00 0.00 0.00 38 1011.0
20260903082509 16 280 0.0 3.2 0.00 0.00 0.00 38 1011.1
20260903082009 16 265 1.6 3.2 0.00 0.00 0.00 36 1011.0